Volver al catálogo

COSMOS 886 DEB

ActivoUNKNOWN
NORAD 9721·DEBRIS·🇷🇺 Russia

Lanzado Dec 27, 1976 desde Baikonur Cosmodrome

Loading…

Próximos Pases (próximas 24 horas)

TLE

ActualizadoSource: Space-Track

Época: Sep 14, 2026, 10:24 UTC

1 09721U 76126S   26257.43398529  .00000363  00000-0  15851-3 0  9991
2 09721  65.8400 254.8327 1066526 333.1123  21.8204 12.77464315307767

Sigue COSMOS 886 DEB en tiempo real con AllMySat

Download on the App Store